Погода в Муравье

Россия / Алтайский край     53°53′35″N   84°43′34″E
темп.,
°C
ветер,
м/с
пор.,
м/с
влажн.,
%
обл.,
%
осадки,
мм/ч
давл.,
гПа
погр.,
м
28 февраля, вс
вс2801:00−27ююз229747 0.0 104019
04:00−28ю2210064 0.0 104019
07:00−29юв229972 0.0 104019
10:00−25юв359771 0.0 1038126
13:00−19юв469382 0.0 1035264
16:00−15юв479092 0.0 1032310
19:00−14юв479696 0.2 1029259
22:00−12юв4895100 0.8 1026308
1 марта, пн
пн101:00−10юв4895100 1.6 1022339
04:00−9ююв4995100 1.0 1019345
07:00−7ююв5995100 2.9 1016527
10:00−6ю51195100 1.9 1013737
13:00−4ююз71295100 4.1 10111004
16:00−2юз91589100 0.9 1009968
19:00−3юз81789100 1.1 1009855
22:00−3юз81792100 0.4 1007779
2 марта, вт
вт201:00−2юз91596100 1.4 1007708
04:00−3зюз81495100 1.6 1009725
07:00−5зюз61393100 1.8 1012654
10:00−7зюз71192100 0.3 1014692
13:00−8зюз6991100 0.6 1017636
16:00−9зюз4690100 0.2 1017655
19:00−11зюз2395100 0.3 101788
22:00−13юз229792 0.1 101825
3 марта, ср
ср301:00−13ююз129796 0.3 101721
04:00−14ююз119799 0.1 101720
07:00−14ю009699 0.3 101720
10:00−12ю119497 0.2 1017121
13:00−9ююз229099 0.4 1018374
16:00−8зюз3592100 0.3 1019568
19:00−10зюз4894100 0.6 1021422
22:00−12юз369693 0.1 1023227
4 марта, чт
чт401:00−15юз379795 0.3 1025160
04:00−17ю239897 0.1 102539
07:00−17ююв379798 0.1 1026158
10:00−13ююв5994100 0.0 1025290
13:00−8ююв5990100 0.0 1023559
16:00−5ююз5983100 0.0 1022866
19:00−7ююв4891100 0.0 1021213
22:00−9ююв4888100 0.0 1019143